IRIDIUM 33 DEB

Satellite information

Favourite Embed

Satellite Type and Status

DEBRISIN ORBIT

Key statistics

Satellite IRIDIUM 33 DEB at a glance.

Uptime

10213

Days in orbit

Revolutions

≈ 14.5

Per day

Orbit

LEO

Low Earth Orbit

Inclination

86.1

Latest

Satellite identification and parameters

Extended collection of information and parameters for IRIDIUM 33 DEB.

Object identification

Identified? True

Debris? True

Object name: IRIDIUM 33 DEB

International designator: 1997-051NF

Object number (NORAD): 34926

Object ID (CCSDS): 34926

Country: UNITED STATES OF AMERICA (US)

Current information (Y/N): Y

RCS size: SMALL

Orbital parameters

Period: 99.407 minutes

Inclination: 86.1357 deg

SMA: 7108.394 km

Apoapsis: 792.742 km

Periapsis: 667.777 km

RAAN: 56.4596 deg

Eccentricy: 0.00878997

Argument of periapsis: 280.0807 deg

Mean anomaly: 134.1444 deg

Mean motion: 14.48590014 rev/day

Mean motion (dot): 0.00015232 rev/day2

B* drag term: 0.0038490001 1/REarth

Two-line elements (TLE)

Creation date: Aug. 31, 2025, 2:26 a.m.

Reference frame: TEME

Reference center: EARTH

Epoch: Aug. 30, 2025, 6:03 a.m. UTC

TLE line 0: 0 IRIDIUM 33 DEB

TLE line 1: 1 34926U 97051NF 25242.25232192 .00015232 00000-0 38490-2 0 9996

TLE line 2: 2 34926 86.1357 56.4596 0087900 280.0807 134.1444 14.48590014849413

Live tracking on map

Real-time ground track for satellite IRIDIUM 33 DEB.

In-orbit conjunctions

A list of the most updated potential collisions computed for object IRIDIUM 33 DEB.

Target Orbit TCA Probability of collision Miss distance Type
COSMOS 1275 DEB LEO 2025-03-18 02:48:14 0.0001086257 224.0 (m) DEBRIS
IRIDIUM 920 LEO 2025-02-25 20:35:40 0.0001554715 147.0 (m) PAYLOAD
CZ-6A DEB LEO 2025-02-09 17:06:06 0.0003934275 434.0 (m) DEBRIS
CZ-6A DEB SSO 2024-12-26 03:28:35 0.0002274857 49.0 (m) DEBRIS

Associated space launch

Iridium provides global mobile telecommunications services using a constellation of 66 low earth orbit satellites in a 86.4° inclined orbit. Although 77 satellites were originally envisioned for the system and spawned the name based on the 77th element in the periodic table, the system has been scaled back. Motorola's Satellite Communications Group designed and manufactured the Iridium satellites with Lockheed Martin providing the LM-700A spacecraft buses.

IRIDIUM 33 DEB was lifted into orbit during the mission ‘Proton-K/17S40 | Iridium 27 to 33’, on board a Proton-K/17S40 space rocket.

The launch took place on Sept. 14, 1997, 1:36 a.m. from 81/23 (81L).

For more information about the launch, click the button.

Launch to space Proton-K/17S40 | Iridium 27 to 33
Proton-K/17S40 | Iridium 27 to 33

Agency: N/A

Status: Launch Successful

Launch date: Sept. 14, 1997, 1:36 a.m. UTC

Rocket: Proton-K/17S40

Launch pad: 81/23 (81L)

Location: Baikonur Cosmodrome, Republic of Kazakhstan

...

Latest news about this satellite

There are no fresh news available about this satellite. Check back as we update our databases every day.


Newsletter sign-up

Weekly statistics, charts and insights to help you stay on top of the space industry.